Location: Ausserwald
(47.3167°N, 11.5500°E)
Time: 01:50:33
(UTC+00:00)

Daily predictions for brighter satellites

Satellite Brightness Start Highest point End
(mag) Time Altitude Azimuth Time Altitude Azimuth Time Altitude Azimuth
ADEOS II 4.3 00:01:14 10° NE 00:04:15 15° E 00:07:16 10° ESE
Cosmos 1553 Rocket 4.4 00:03:21 32° SW 00:05:57 52° WNW 00:12:00 10° N
NOSS 2-2 (D) 4.2 00:01:53 10° NW 00:06:58 75° SW 00:11:38 22° SSE
Cosmos 1461 3.9 00:03:22 10° NW 00:06:31 31° W 00:06:31 31° W
Cosmos 1867 3.9 00:05:01 30° WSW 00:07:42 63° NW 00:13:10 10° NNE
Cosmos 1674 Rocket 3.9 00:06:55 45° WSW 00:07:49 54° WNW 00:12:04 10° N
Cosmos 2221 Rocket 4.4 00:06:47 33° WSW 00:07:51 38° WNW 00:11:59 10° N
Cosmos 2298 Rocket 4.0 00:07:41 43° SSW 00:09:30 88° WNW 00:14:51 10° NNE
Cosmos 1674 4.0 00:10:51 27° W 00:11:20 28° WNW 00:14:37 10° NNW
USA 306 2.8 00:11:52 58° S 00:12:13 61° SE 00:16:21 10° ENE
Cosmos 1238 Rocket 4.0 00:10:23 10° NW 00:12:06 22° WNW 00:12:06 22° WNW
Thor Agena Rocket 3.9 00:08:15 10° NNE 00:13:29 59° ESE 00:15:34 35° SSE
ATLAS CENTAUR R/B 3.7 00:12:01 10° WNW 00:13:59 15° W 00:13:59 15° W
USA 307 2.9 00:15:21 55° SSE 00:15:41 57° SE 00:19:47 10° ENE
SL-16 R/B 3.6 00:16:08 20° SE 00:18:39 28° ESE 00:23:23 10° NE
ERBS 2.9 00:22:52 39° E 00:22:52 39° E 00:25:10 10° ENE
Cosmos 1980 3.6 00:20:38 38° SSW 00:22:55 87° ESE 00:28:37 10° NNE
ATLAS 5 CENTAUR R/B 3.0 00:12:45 10° NW 00:23:25 47° WSW 00:24:39 38° SSW
Cosmos 1378 Rocket 4.4 00:22:19 33° WSW 00:23:28 40° WNW 00:27:40 10° N
Cosmos 2333 Rocket 3.9 00:19:42 11° WSW 00:24:04 27° NW 00:28:51 10° N
CZ-4C R/B 3.4 00:17:16 10° NW 00:24:13 44° WSW 00:27:53 29° SSW
Cosmos 1455 Rocket 3.4 00:19:47 10° N 00:24:13 62° ENE 00:26:09 32° SSE
USA 215 4.2 00:19:24 10° NE 00:25:37 47° NNW 00:31:49 10° W
Cosmos 332 Rocket 3.8 00:28:23 41° S 00:29:59 70° ESE 00:34:47 10° NNE
NOSS 0 Rocket 4.1 00:29:23 30° SW 00:32:36 70° WNW 00:38:52 10° NNE
USA 32 4.1 00:35:15 36° SSW 00:37:19 65° W 00:42:34 10° N
Meteor 1-24 Rocket 4.2 00:34:52 25° SSE 00:37:57 53° E 00:43:14 10° NNE
Meteor 2-10 Rocket 3.6 00:32:59 10° NNW 00:38:40 74° W 00:41:17 32° S
Cosmos 1975 Rocket 3.0 00:39:39 40° S 00:41:13 82° E 00:45:42 10° N
Cosmos 839 Rocket 4.4 00:38:17 10° NW 00:44:29 52° WSW 00:49:11 22° S
USA 308 2.7 00:44:46 39° WSW 00:46:15 88° SSE 00:50:28 10° ENE
Cosmos 2219 Rocket 4.0 00:43:01 10° W 00:47:26 23° NW 00:51:52 10° N
MOS 1 Rocket 4.2 00:44:05 13° SE 00:47:37 42° ENE 00:51:41 10° N
Cosmos 1025 Rocket 3.0 00:47:03 37° S 00:48:41 79° E 00:53:01 10° NNE
Cosmos 1455 3.2 00:46:47 10° N 00:50:20 41° ENE 00:52:37 19° SE
Cosmos 1269 Rocket 4.0 00:45:55 10° NNW 00:51:14 89° ENE 00:55:07 19° SSE
GP-B 3.6 00:52:22 10° N 00:56:37 45° W 00:58:07 32° SW
Meteor 2-5 Rocket 3.7 00:55:38 28° S 00:58:49 89° ESE 01:04:32 10° NNE
CZ-2D R/B 2.2 00:54:03 10° NNE 00:59:27 77° ESE 01:02:28 27° S
Lacrosse 5 2.2 00:58:31 31° SSW 01:00:39 53° SE 01:05:38 10° ENE
Cosmos 1300 3.8 00:57:49 10° NNW 01:01:03 27° W 01:01:27 26° WSW
USA 267 4.3 01:02:14 22° SW 01:02:28 22° SW 01:07:19 10° WNW
USA 305 3.2 01:07:08 21° W 01:09:47 61° NNW 01:13:56 10° ENE
Cosmos 1544 Rocket 3.5 01:06:09 10° N 01:10:36 84° W 01:13:10 25° S
BREEZE-M DEB (TANK) 4.2 00:58:20 10° WSW 01:13:04 84° NNW 01:17:04 10° ENE
Cosmos 2237 Rocket 2.9 01:11:28 20° WSW 01:15:03 44° NW 01:20:31 10° NNE
AQUA 3.9 01:14:01 10° NNE 01:18:48 75° ESE 01:21:49 22° S
SL-16 R/B 2.5 01:14:42 16° S 01:19:49 72° WSW 01:26:05 10° NNW
Helios 1A 3.4 01:16:52 11° SSE 01:20:55 63° ENE 01:25:06 10° N
SAR-Lupe-2 3.6 01:18:48 10° NNE 01:22:24 77° ESE 01:24:09 28° S
Lacrosse 5 rocket 1.7 01:21:54 29° S 01:23:27 47° SE 01:27:22 10° ENE
SME Rocket 4.1 01:24:35 25° SW 01:25:51 29° W 01:30:07 10° NNW
Resurs 1-4 Rocket 2.3 01:23:24 10° N 01:28:36 61° WNW 01:31:56 22° SW
Cosmos 2074 Rocket 4.0 01:22:32 10° NNW 01:28:48 69° W 01:33:59 16° S
Cosmos 1943 Rocket 2.3 01:28:17 10° NW 01:33:51 57° WSW 01:39:22 10° S
Cosmos 2297 3.7 01:28:08 10° NNW 01:33:52 72° WSW 01:39:33 10° SSE
Cosmos 1703 3.7 01:35:51 16° S 01:38:51 58° E 01:42:44 10° NNE
CRYOSAT 2 4.4 01:38:47 18° S 01:42:21 63° W 01:47:14 10° N
Cosmos 2184 Rocket 4.2 01:37:32 10° NNW 01:43:39 55° W 01:48:45 15° SSW
Cosmos 2278 Rocket 3.9 01:41:34 10° WNW 01:44:14 14° W 01:45:23 13° WSW
ADEOS II 2.1 01:39:18 10° NNE 01:44:34 80° WNW 01:48:40 17° SSW
IDEFIX/ARIANE 42P 2.6 01:40:11 10° NNE 01:45:30 88° ESE 01:49:52 15° SSW
Cosmos 1610 Rocket 4.4 01:41:21 10° NNW 01:47:31 77° W 01:53:37 10° S
Cosmos 292 Rocket 3.8 01:48:10 17° SSW 01:51:50 83° ESE 01:56:39 10° NNE
USA 306 3.9 01:47:59 10° W 01:51:58 42° NNW 01:55:57 10° NE
Cosmos 2084 Rocket 4.1 01:49:15 16° WSW 01:51:58 39° NW 01:55:34 10° NNE
USA 307 3.9 01:51:24 10° W 01:55:25 44° NNW 01:59:27 10° NE
NPP 4.2 01:51:25 10° N 01:56:31 44° WNW 02:00:35 16° SW
ERBS 3.9 01:55:04 10° W 01:57:41 25° NNW 02:00:20 10° NE
Cosmos 2369 Rocket 2.2 01:53:34 10° NNW 01:59:12 87° WSW 02:04:47 10° SSE
SL-16 R/B 2.6 01:58:00 16° SW 02:02:28 52° WNW 02:08:02 10° NNE
IRS-1D 3.8 01:57:07 10° NNE 02:02:30 76° ESE 02:07:46 10° S
Cosmos 2228 3.0 01:58:12 10° NNW 02:02:34 75° W 02:06:53 10° S
Cosmos 614 Rocket 4.2 01:57:39 10° NNW 02:02:40 51° WSW 02:07:41 10° S
EO 1 Del DPAF 3.3 01:59:19 10° N 02:02:46 55° WNW 02:05:16 17° SSW
Cosmos 2251 Rocket 3.5 01:59:28 10° NNW 02:04:45 79° WSW 02:10:02 10° SSE
Meteor 1-28 Rocket 3.9 02:03:36 16° SSW 02:06:09 35° W 02:09:37 10° NNW
Cosmos 1656 Rocket 3.6 02:03:08 10° NNW 02:08:36 89° ENE 02:14:01 10° SSE
COSMOS 2455 2.9 02:04:48 14° SW 02:10:00 83° NW 02:16:05 10° NNE
Cosmos 2058 Rocket 4.4 02:06:12 10° N 02:10:23 41° ENE 02:14:30 10° SE
Cosmos 1536 Rocket 4.2 02:08:02 15° SW 02:11:21 41° WNW 02:15:31 10° N
COSMOS 2441 4.4 02:12:56 10° N 02:17:49 77° WNW 02:22:38 10° SSW
Cosmos 1408 4.3 02:17:07 10° SSE 02:20:23 32° E 02:23:39 10° NNE
Nadezhda 1 Rocket 4.4 02:15:05 12° SSW 02:20:49 49° WNW 02:26:55 10° N
MSX 4.0 02:16:47 10° N 02:22:30 64° WNW 02:28:12 10° SSW
Cosmos 1455 4.0 02:23:18 10° NW 02:25:26 15° W 02:27:22 11° WSW
Cosmos 1603 4.0 02:20:20 10° SSW 02:25:53 66° ESE 02:31:32 10° NNE
USA 308 4.2 02:22:20 10° W 02:26:13 36° NNW 02:30:08 10° ENE
Cosmos 1271 Rocket 3.9 02:26:21 10° NW 02:29:30 25° W 02:32:39 10° SSW
Cosmos 1606 Rocket 3.8 02:29:25 10° NNW 02:33:43 53° W 02:37:58 10° S
ALOS 3.0 02:32:20 10° NNE 02:36:55 54° E 02:41:28 10° S
CZ-2D R/B 3.9 02:35:13 10° NNW 02:38:52 19° WNW 02:42:30 10° W
CZ-2C R/B 3.2 02:34:01 10° NNE 02:39:05 56° E 02:43:59 10° S
Helios 1B rocket 2.4 02:39:40 10° NNE 02:43:45 80° WNW 02:47:48 10° SSW
Lacrosse 5 2.7 02:38:52 10° W 02:43:46 45° NNW 02:48:40 10° NE
Cosmos 2366 rocket 4.0 02:39:50 10° NNW 02:45:59 76° W 02:52:09 10° S
Cosmos 2341 Rocket 4.3 02:40:15 10° NNW 02:46:27 54° W 02:52:38 10° SSW
USA 305 4.5 02:46:06 10° WNW 02:49:54 32° N 02:53:42 10° ENE
BREEZE-M DEB (TANK) 2.7 02:48:09 10° SW 02:52:12 47° SSE 02:54:23 10° E
SL-8 Rocket 4.2 02:47:02 10° NNW 02:53:12 58° W 02:59:22 10° S
